This is the latest recevied weather packets stored in our database for station/object KE7JVX-3. If no packets are shown the sender has not sent any weather packets the latest 10 day(s).
| Time | Temp. | Humidity | Pressure | Rain* | Wind** | Luminosity | Snow |
|---|---|---|---|---|---|---|---|
| 1777861169 | 11.11° C | 15% | 1009.7 hPa | 0 mm | - | - | - |
| 1777860567 | 11.67° C | 13% | 1009.8 hPa | 0 mm | - | - | - |
| 1777859967 | 11.67° C | 11% | 1009.8 hPa | 0 mm | - | - | - |
| 1777859367 | 12.22° C | 10% | 1009.8 hPa | 0 mm | - | - | - |
| 1777858996 | 12.22° C | 10% | 1009.9 hPa | 0 mm | - | - | - |
| 1777858767 | 12.22° C | 10% | 1009.9 hPa | 0 mm | - | - | - |
| 1777858451 | 12.78° C | 9% | 1009.9 hPa | 0 mm | - | - | - |
| 1777858167 | 12.78° C | 9% | 1009.9 hPa | 0 mm | - | - | - |
| 1777857761 | 13.33° C | 9% | 1010.1 hPa | 0 mm | - | - | - |
| 1777857567 | 13.33° C | 9% | 1010.1 hPa | 0 mm | - | - | - |
| 1777856967 | 13.33° C | 10% | 1010.1 hPa | 0 mm | - | - | - |
| 1777856367 | 13.33° C | 13% | 1010 hPa | 0 mm | - | - | - |
| 1777855947 | 13.33° C | 19% | 1010.2 hPa | 0 mm | - | - | - |
| 1777855767 | 13.33° C | 19% | 1010.2 hPa | 0 mm | - | - | - |
| 1777855391 | 13.33° C | 21% | 1010.3 hPa | 0 mm | - | - | - |
| 1777855167 | 13.33° C | 21% | 1010.3 hPa | 0 mm | - | - | - |
| 1777854819 | 12.78° C | 24% | 1010.4 hPa | 0 mm | - | - | - |
| 1777854567 | 12.78° C | 24% | 1010.4 hPa | 0 mm | - | - | - |
| 1777853967 | 12.78° C | 24% | 1010.5 hPa | 0 mm | - | - | - |
| 1777853367 | 12.78° C | 24% | 1010.4 hPa | 0 mm | - | - | - |
| 1777852767 | 13.33° C | 23% | 1010.5 hPa | 0 mm | - | - | - |
| 1777852168 | 14.44° C | 22% | 1010.4 hPa | 0 mm | - | - | - |
| 1777851851 | 13.89° C | 20% | 1010.5 hPa | 0 mm | - | - | - |
| 1777851567 | 13.89° C | 20% | 1010.5 hPa | 0 mm | - | - | - |
| 1777850967 | 13.33° C | 21% | 1010.7 hPa | 0 mm | - | - | - |
* Rain latest hour (hover to see other rain measurements)
** Current wind speed in m/s (hover to see current wind gust speed)